Time,TemperatureF,DewpointF,PressureIn,WindDirection,WindDirectionDegrees,WindSpeedMPH,WindSpeedGustMPH,Humidity,HourlyPrecipIn,Conditions,Clouds,dailyrainin,SoftwareType,DateUTC
2013-07-31 00:00:00,65.0,60.4,30.31,North,0,0.0,0.0,85,0.00,,,0.05,WUHU216HW,2013-07-31 05:00:00,
2013-07-31 00:05:00,65.0,60.4,30.31,North,0,0.0,0.0,85,0.00,,,0.05,WUHU216HW,2013-07-31 05:05:00,
2013-07-31 00:30:00,64.4,60.2,30.31,North,0,0.0,0.0,86,0.00,,,0.00,WUHU216HW,2013-07-31 05:30:00,
2013-07-31 00:35:00,64.4,60.2,30.31,North,0,0.0,0.0,86,0.00,,,0.00,WUHU216HW,2013-07-31 05:35:00,
2013-07-31 00:59:00,64.1,60.2,30.32,North,0,0.0,0.0,87,0.00,,,0.00,WUHU216HW,2013-07-31 05:59:00,
2013-07-31 01:00:00,64.1,60.2,30.32,North,0,0.0,0.0,87,0.00,,,0.00,WUHU216HW,2013-07-31 06:00:00,
2013-07-31 01:05:00,64.1,60.2,30.32,North,0,0.0,0.0,87,0.00,,,0.00,WUHU216HW,2013-07-31 06:05:00,
2013-07-31 01:29:00,63.4,59.5,30.32,North,0,0.0,0.0,87,0.00,,,0.00,WUHU216HW,2013-07-31 06:29:00,
2013-07-31 01:30:00,63.4,59.5,30.32,North,0,0.0,0.0,87,0.00,,,0.00,WUHU216HW,2013-07-31 06:30:00,
2013-07-31 01:35:00,63.4,59.5,30.32,North,0,0.0,0.0,87,0.00,,,0.00,WUHU216HW,2013-07-31 06:35:00,
2013-07-31 01:59:00,63.2,59.6,30.32,North,0,0.0,0.0,88,0.00,,,0.00,WUHU216HW,2013-07-31 06:59:00,
2013-07-31 02:00:00,63.2,59.6,30.32,North,0,0.0,0.0,88,0.00,,,0.00,WUHU216HW,2013-07-31 07:00:00,
2013-07-31 02:05:00,63.2,59.6,30.32,North,0,0.0,0.0,88,0.00,,,0.00,WUHU216HW,2013-07-31 07:05:00,
2013-07-31 02:29:00,62.6,59.0,30.32,North,0,0.0,0.0,88,0.00,,,0.00,WUHU216HW,2013-07-31 07:29:00,
2013-07-31 02:30:00,62.6,59.0,30.32,North,0,0.0,0.0,88,0.00,,,0.00,WUHU216HW,2013-07-31 07:30:00,
2013-07-31 02:35:00,62.6,59.0,30.32,North,0,0.0,0.0,88,0.00,,,0.00,WUHU216HW,2013-07-31 07:35:00,
2013-07-31 02:59:00,61.9,58.4,30.32,North,0,0.0,0.0,88,0.00,,,0.00,WUHU216HW,2013-07-31 07:59:00,
2013-07-31 03:00:00,61.9,58.4,30.32,North,0,0.0,0.0,88,0.00,,,0.00,WUHU216HW,2013-07-31 08:00:00,
2013-07-31 03:05:00,61.9,58.4,30.32,North,0,0.0,0.0,88,0.00,,,0.00,WUHU216HW,2013-07-31 08:05:00,
2013-07-31 03:29:00,61.9,58.7,30.32,North,0,0.0,0.0,89,0.00,,,0.00,WUHU216HW,2013-07-31 08:29:00,
2013-07-31 03:30:00,61.9,58.7,30.32,North,0,0.0,0.0,89,0.00,,,0.00,WUHU216HW,2013-07-31 08:30:00,
2013-07-31 03:35:00,61.9,58.7,30.32,North,0,0.0,0.0,89,0.00,,,0.00,WUHU216HW,2013-07-31 08:35:00,
2013-07-31 03:59:00,61.9,59.0,30.33,North,0,0.0,0.0,90,0.01,,,0.00,WUHU216HW,2013-07-31 08:59:00,
2013-07-31 04:00:00,61.9,59.0,30.33,North,0,0.0,0.0,90,0.01,,,0.00,WUHU216HW,2013-07-31 09:00:00,
2013-07-31 04:05:00,61.9,59.0,30.33,North,0,0.0,0.0,90,0.01,,,0.00,WUHU216HW,2013-07-31 09:05:00,
2013-07-31 04:30:00,62.3,59.4,30.32,North,0,0.0,0.0,90,0.01,,,0.01,WUHU216HW,2013-07-31 09:30:00,
2013-07-31 04:35:00,62.3,59.4,30.32,North,0,0.0,0.0,90,0.01,,,0.01,WUHU216HW,2013-07-31 09:35:00,
2013-07-31 04:59:00,62.3,59.4,30.32,North,0,0.0,0.0,90,0.00,,,0.01,WUHU216HW,2013-07-31 09:59:00,
2013-07-31 05:00:00,62.3,59.4,30.32,North,0,0.0,0.0,90,0.00,,,0.01,WUHU216HW,2013-07-31 10:00:00,
2013-07-31 05:05:00,62.3,59.4,30.32,North,0,0.0,0.0,90,0.00,,,0.01,WUHU216HW,2013-07-31 10:05:00,
2013-07-31 05:29:00,62.3,59.7,30.31,North,0,0.0,0.0,91,0.00,,,0.01,WUHU216HW,2013-07-31 10:29:00,
2013-07-31 05:30:00,62.3,59.7,30.31,North,0,0.0,0.0,91,0.00,,,0.01,WUHU216HW,2013-07-31 10:30:00,
2013-07-31 05:35:00,62.3,59.7,30.31,North,0,0.0,0.0,91,0.00,,,0.01,WUHU216HW,2013-07-31 10:35:00,
2013-07-31 05:59:00,62.3,59.4,30.32,North,0,0.0,0.0,90,0.00,,,0.01,WUHU216HW,2013-07-31 10:59:00,
2013-07-31 06:00:00,62.3,59.4,30.32,North,0,0.0,0.0,90,0.00,,,0.01,WUHU216HW,2013-07-31 11:00:00,
2013-07-31 06:05:00,62.3,59.4,30.32,North,0,0.0,0.0,90,0.00,,,0.01,WUHU216HW,2013-07-31 11:05:00,
2013-07-31 06:29:00,61.6,58.7,30.31,North,0,0.0,0.0,90,0.00,,,0.01,WUHU216HW,2013-07-31 11:29:00,
2013-07-31 06:30:00,61.6,58.7,30.31,North,0,0.0,0.0,90,0.00,,,0.01,WUHU216HW,2013-07-31 11:30:00,
2013-07-31 06:35:00,61.6,58.7,30.31,North,0,0.0,0.0,90,0.00,,,0.01,WUHU216HW,2013-07-31 11:35:00,
2013-07-31 06:59:00,61.9,59.0,30.32,North,0,0.0,0.0,90,0.00,,,0.01,WUHU216HW,2013-07-31 11:59:00,
2013-07-31 07:00:00,61.9,59.0,30.32,North,0,0.0,0.0,90,0.00,,,0.01,WUHU216HW,2013-07-31 12:00:00,
2013-07-31 07:05:00,61.9,59.0,30.32,North,0,0.0,0.0,90,0.00,,,0.01,WUHU216HW,2013-07-31 12:05:00,
2013-07-31 07:29:00,62.6,59.8,30.33,North,0,0.0,0.0,90,0.00,,,0.01,WUHU216HW,2013-07-31 12:29:00,
2013-07-31 07:30:00,62.6,59.8,30.33,North,0,0.0,0.0,90,0.00,,,0.01,WUHU216HW,2013-07-31 12:30:00,
2013-07-31 07:35:00,62.6,59.8,30.33,North,0,0.0,0.0,90,0.00,,,0.01,WUHU216HW,2013-07-31 12:35:00,
2013-07-31 07:59:00,63.2,60.6,30.33,North,0,0.0,0.0,91,0.00,,,0.01,WUHU216HW,2013-07-31 12:59:00,
2013-07-31 08:00:00,63.2,60.6,30.33,North,0,0.0,0.0,91,0.00,,,0.01,WUHU216HW,2013-07-31 13:00:00,
2013-07-31 08:05:00,63.2,60.6,30.33,North,0,0.0,0.0,91,0.00,,,0.01,WUHU216HW,2013-07-31 13:05:00,
2013-07-31 08:30:00,64.1,61.5,30.33,North,0,0.0,0.0,91,0.00,,,0.01,WUHU216HW,2013-07-31 13:30:00,
2013-07-31 08:35:00,64.1,61.5,30.33,North,0,0.0,0.0,91,0.00,,,0.01,WUHU216HW,2013-07-31 13:35:00,
2013-07-31 09:00:00,65.3,62.4,30.32,North,0,0.0,0.0,90,0.00,,,0.01,WUHU216HW,2013-07-31 14:00:00,
2013-07-31 09:05:00,65.3,62.4,30.32,North,0,0.0,0.0,90,0.00,,,0.01,WUHU216HW,2013-07-31 14:05:00,
2013-07-31 09:30:00,66.8,63.7,30.32,North,0,0.0,0.0,90,0.00,,,0.01,WUHU216HW,2013-07-31 14:30:00,
2013-07-31 09:35:00,66.8,63.7,30.32,North,0,0.0,0.0,90,0.00,,,0.01,WUHU216HW,2013-07-31 14:35:00,
2013-07-31 10:00:00,68.6,65.2,30.32,North,0,0.0,0.0,89,0.00,,,0.01,WUHU216HW,2013-07-31 15:00:00,
2013-07-31 10:05:00,68.6,65.2,30.32,North,0,0.0,0.0,89,0.00,,,0.01,WUHU216HW,2013-07-31 15:05:00,
2013-07-31 10:30:00,68.6,64.9,30.33,North,0,0.0,0.0,88,0.01,,,0.01,WUHU216HW,2013-07-31 15:30:00,
2013-07-31 10:35:00,68.6,64.9,30.33,North,0,0.0,0.0,88,0.01,,,0.01,WUHU216HW,2013-07-31 15:35:00,
2013-07-31 11:00:00,68.8,65.3,30.33,North,0,0.0,0.0,89,0.06,,,0.02,WUHU216HW,2013-07-31 16:00:00,
2013-07-31 11:05:00,68.8,65.3,30.33,North,0,0.0,0.0,89,0.06,,,0.02,WUHU216HW,2013-07-31 16:05:00,
2013-07-31 11:30:00,69.3,66.2,30.33,North,0,0.0,0.0,90,0.04,,,0.07,WUHU216HW,2013-07-31 16:30:00,
2013-07-31 11:35:00,69.3,66.2,30.33,North,0,0.0,0.0,90,0.04,,,0.07,WUHU216HW,2013-07-31 16:35:00,
2013-07-31 12:00:00,70.0,67.0,30.33,North,0,0.0,0.0,90,0.01,,,0.07,WUHU216HW,2013-07-31 17:00:00,
2013-07-31 12:05:00,70.0,67.0,30.33,North,0,0.0,0.0,90,0.01,,,0.07,WUHU216HW,2013-07-31 17:05:00,
2013-07-31 12:30:00,70.9,67.1,30.31,North,0,0.0,0.0,88,0.01,,,0.08,WUHU216HW,2013-07-31 17:30:00,
2013-07-31 12:35:00,70.9,67.1,30.31,North,0,0.0,0.0,88,0.01,,,0.08,WUHU216HW,2013-07-31 17:35:00,
2013-07-31 13:00:00,72.4,68.0,30.32,North,0,0.0,0.0,86,0.00,,,0.08,WUHU216HW,2013-07-31 18:00:00,
2013-07-31 13:05:00,72.4,68.0,30.32,North,0,0.0,0.0,86,0.00,,,0.08,WUHU216HW,2013-07-31 18:05:00,
2013-07-31 13:30:00,73.8,68.1,30.31,North,0,0.0,0.0,82,0.00,,,0.08,WUHU216HW,2013-07-31 18:30:00,
2013-07-31 13:35:00,73.8,68.1,30.31,North,0,0.0,0.0,82,0.00,,,0.08,WUHU216HW,2013-07-31 18:35:00,
2013-07-31 14:00:00,74.5,67.2,30.30,North,0,0.0,0.0,78,0.00,,,0.08,WUHU216HW,2013-07-31 19:00:00,
2013-07-31 14:05:00,74.5,67.2,30.30,North,0,0.0,0.0,78,0.00,,,0.08,WUHU216HW,2013-07-31 19:05:00,
2013-07-31 14:30:00,76.0,67.1,30.30,North,0,0.0,0.0,74,0.00,,,0.08,WUHU216HW,2013-07-31 19:30:00,
2013-07-31 14:35:00,76.0,67.1,30.30,North,0,0.0,0.0,74,0.00,,,0.08,WUHU216HW,2013-07-31 19:35:00,
2013-07-31 15:00:00,76.9,66.4,30.29,North,0,0.0,0.0,70,0.00,,,0.08,WUHU216HW,2013-07-31 20:00:00,
2013-07-31 15:05:00,76.9,66.4,30.29,North,0,0.0,0.0,70,0.00,,,0.08,WUHU216HW,2013-07-31 20:05:00,
2013-07-31 15:30:00,78.1,66.2,30.28,North,0,0.0,0.0,67,0.00,,,0.08,WUHU216HW,2013-07-31 20:30:00,
2013-07-31 15:35:00,78.1,66.2,30.28,North,0,0.0,0.0,67,0.00,,,0.08,WUHU216HW,2013-07-31 20:35:00,
2013-07-31 16:00:00,78.5,64.0,30.27,North,0,0.0,0.0,61,0.00,,,0.08,WUHU216HW,2013-07-31 21:00:00,
2013-07-31 16:05:00,78.5,64.0,30.27,North,0,0.0,0.0,61,0.00,,,0.08,WUHU216HW,2013-07-31 21:05:00,
2013-07-31 16:30:00,77.9,64.4,30.27,North,0,0.0,0.0,63,0.00,,,0.08,WUHU216HW,2013-07-31 21:30:00,
2013-07-31 16:35:00,77.9,64.4,30.27,North,0,0.0,0.0,63,0.00,,,0.08,WUHU216HW,2013-07-31 21:35:00,
2013-07-31 17:00:00,78.3,62.4,30.26,North,0,0.0,0.0,58,0.00,,,0.08,WUHU216HW,2013-07-31 22:00:00,
2013-07-31 17:05:00,78.3,62.4,30.26,North,0,0.0,0.0,58,0.00,,,0.08,WUHU216HW,2013-07-31 22:05:00,
2013-07-31 17:30:00,76.9,60.9,30.27,North,0,0.0,0.0,58,0.00,,,0.08,WUHU216HW,2013-07-31 22:30:00,
2013-07-31 17:35:00,76.9,60.9,30.27,North,0,0.0,0.0,58,0.00,,,0.08,WUHU216HW,2013-07-31 22:35:00,
2013-07-31 18:00:00,76.0,59.1,30.26,North,0,0.0,0.0,56,0.00,,,0.08,WUHU216HW,2013-07-31 23:00:00,
2013-07-31 18:05:00,76.0,59.1,30.26,North,0,0.0,0.0,56,0.00,,,0.08,WUHU216HW,2013-07-31 23:05:00,
2013-07-31 18:30:00,77.0,61.1,30.26,North,0,0.0,0.0,58,0.00,,,0.08,WUHU216HW,2013-07-31 23:30:00,
2013-07-31 18:35:00,77.0,61.1,30.26,North,0,0.0,0.0,58,0.00,,,0.08,WUHU216HW,2013-07-31 23:35:00,
2013-07-31 19:00:00,79.4,63.9,30.25,North,0,0.0,0.0,59,0.00,,,0.08,WUHU216HW,2013-08-01 00:00:00,
2013-07-31 19:05:00,79.4,63.9,30.25,North,0,0.0,0.0,59,0.00,,,0.08,WUHU216HW,2013-08-01 00:05:00,
2013-07-31 19:30:00,83.2,64.7,30.26,North,0,0.0,0.0,54,0.00,,,0.08,WUHU216HW,2013-08-01 00:30:00,
2013-07-31 19:35:00,83.2,64.7,30.26,North,0,0.0,0.0,54,0.00,,,0.08,WUHU216HW,2013-08-01 00:35:00,
2013-07-31 20:00:00,84.2,65.3,30.26,North,0,0.0,0.0,53,0.00,,,0.08,WUHU216HW,2013-08-01 01:00:00,
2013-07-31 20:05:00,84.2,65.3,30.26,North,0,0.0,0.0,53,0.00,,,0.08,WUHU216HW,2013-08-01 01:05:00,
2013-07-31 20:30:00,80.3,62.1,30.26,North,0,0.0,0.0,54,0.00,,,0.08,WUHU216HW,2013-08-01 01:30:00,
2013-07-31 20:35:00,80.3,62.1,30.26,North,0,0.0,0.0,54,0.00,,,0.08,WUHU216HW,2013-08-01 01:35:00,
2013-07-31 21:00:00,73.6,60.2,30.26,North,0,0.0,0.0,63,0.00,,,0.08,WUHU216HW,2013-08-01 02:00:00,
2013-07-31 21:05:00,73.6,60.2,30.26,North,0,0.0,0.0,63,0.00,,,0.08,WUHU216HW,2013-08-01 02:05:00,
2013-07-31 21:30:00,70.2,59.1,30.27,North,0,0.0,0.0,68,0.00,,,0.08,WUHU216HW,2013-08-01 02:30:00,
2013-07-31 21:35:00,70.2,59.1,30.27,North,0,0.0,0.0,68,0.00,,,0.08,WUHU216HW,2013-08-01 02:35:00,
2013-07-31 22:00:00,67.7,59.1,30.27,North,0,0.0,0.0,74,0.00,,,0.08,WUHU216HW,2013-08-01 03:00:00,
2013-07-31 22:05:00,67.7,59.1,30.27,North,0,0.0,0.0,74,0.00,,,0.08,WUHU216HW,2013-08-01 03:05:00,
2013-07-31 22:30:00,66.1,58.6,30.28,North,0,0.0,0.0,77,0.00,,,0.08,WUHU216HW,2013-08-01 03:30:00,
2013-07-31 22:35:00,66.1,58.6,30.28,North,0,0.0,0.0,77,0.00,,,0.08,WUHU216HW,2013-08-01 03:35:00,
2013-07-31 23:00:00,65.0,58.3,30.28,North,0,0.0,0.0,79,0.00,,,0.08,WUHU216HW,2013-08-01 04:00:00,
2013-07-31 23:01:00,65.0,58.3,30.28,North,0,0.0,0.0,79,0.00,,,0.08,WUHU216HW,2013-08-01 04:01:00,
2013-07-31 23:02:00,65.0,58.3,30.28,North,0,0.0,0.0,79,0.00,,,0.08,WUHU216HW,2013-08-01 04:02:00,
2013-07-31 23:07:00,65.0,58.3,30.28,North,0,0.0,0.0,79,0.00,,,0.08,WUHU216HW,2013-08-01 04:07:00,
2013-07-31 23:30:00,64.4,57.8,30.29,North,0,0.0,0.0,79,0.00,,,0.08,WUHU216HW,2013-08-01 04:30:00,
2013-07-31 23:35:00,64.4,57.8,30.29,North,0,0.0,0.0,79,0.00,,,0.08,WUHU216HW,2013-08-01 04:35:00,